Time,TemperatureF,DewpointF,PressureIn,WindDirection,WindDirectionDegrees,WindSpeedMPH,WindSpeedGustMPH,Humidity,HourlyPrecipIn,Conditions,Clouds,dailyrainin,SolarRadiationWatts/m^2,SoftwareType,DateUTC
2013-07-28 00:13:00,76.5,75.0,30.00,WNW,286,0.0,-999.0,94,-99.99,,,0.00,0,weatherlink.com 1.10,2013-07-28 04:13:00,
2013-07-28 00:28:00,75.8,74.0,30.01,WNW,286,0.0,-999.0,94,-99.99,,,0.00,0,weatherlink.com 1.10,2013-07-28 04:28:00,
2013-07-28 00:43:00,75.6,74.0,30.01,WNW,286,0.0,-999.0,94,-99.99,,,0.00,0,weatherlink.com 1.10,2013-07-28 04:43:00,
2013-07-28 00:58:00,75.4,74.0,30.00,WNW,286,0.0,-999.0,94,-99.99,,,0.00,0,weatherlink.com 1.10,2013-07-28 04:58:00,
2013-07-28 01:14:00,75.2,73.0,29.99,WNW,286,0.0,-999.0,94,-99.99,,,0.00,0,weatherlink.com 1.10,2013-07-28 05:14:00,
2013-07-28 01:28:00,75.1,73.0,29.99,WNW,286,0.0,-999.0,94,-99.99,,,0.00,0,weatherlink.com 1.10,2013-07-28 05:28:00,
2013-07-28 01:43:00,74.9,73.0,29.98,WNW,286,0.0,-999.0,94,-99.99,,,0.00,0,weatherlink.com 1.10,2013-07-28 05:43:00,
2013-07-28 01:58:00,74.8,73.0,29.97,WNW,286,0.0,-999.0,94,-99.99,,,0.00,0,weatherlink.com 1.10,2013-07-28 05:58:00,
2013-07-28 02:13:00,74.8,73.0,29.97,WNW,286,0.0,-999.0,94,-99.99,,,0.00,0,weatherlink.com 1.10,2013-07-28 06:13:00,
2013-07-28 02:29:00,74.7,73.0,29.97,WNW,286,0.0,-999.0,94,-99.99,,,0.00,0,weatherlink.com 1.10,2013-07-28 06:29:00,
2013-07-28 02:44:00,74.8,73.0,29.96,WNW,286,0.0,-999.0,94,-99.99,,,0.00,0,weatherlink.com 1.10,2013-07-28 06:44:00,
2013-07-28 02:59:00,74.8,73.0,29.96,WNW,286,0.0,-999.0,94,-99.99,,,0.00,0,weatherlink.com 1.10,2013-07-28 06:59:00,
2013-07-28 03:14:00,74.9,73.0,29.96,WNW,286,0.0,-999.0,94,-99.99,,,0.00,0,weatherlink.com 1.10,2013-07-28 07:14:00,
2013-07-28 03:29:00,75.1,73.0,29.96,WNW,286,0.0,-999.0,94,-99.99,,,0.00,0,weatherlink.com 1.10,2013-07-28 07:29:00,
2013-07-28 03:44:00,75.1,73.0,29.96,WNW,286,0.0,-999.0,94,-99.99,,,0.00,0,weatherlink.com 1.10,2013-07-28 07:44:00,
2013-07-28 03:59:00,75.1,74.0,29.96,WNW,286,0.0,-999.0,95,-99.99,,,0.00,0,weatherlink.com 1.10,2013-07-28 07:59:00,
2013-07-28 04:14:00,75.0,74.0,29.96,WNW,286,0.0,-999.0,95,-99.99,,,0.00,0,weatherlink.com 1.10,2013-07-28 08:14:00,
2013-07-28 04:29:00,75.0,74.0,29.96,WNW,286,0.0,-999.0,95,-99.99,,,0.00,0,weatherlink.com 1.10,2013-07-28 08:29:00,
2013-07-28 04:44:00,75.0,74.0,29.96,WNW,286,0.0,-999.0,95,-99.99,,,0.00,0,weatherlink.com 1.10,2013-07-28 08:44:00,
2013-07-28 04:59:00,74.9,73.0,29.96,WNW,286,0.0,-999.0,95,-99.99,,,0.00,0,weatherlink.com 1.10,2013-07-28 08:59:00,
2013-07-28 05:14:00,74.8,73.0,29.96,WNW,286,0.0,-999.0,95,-99.99,,,0.00,0,weatherlink.com 1.10,2013-07-28 09:14:00,
2013-07-28 05:29:00,75.0,74.0,29.96,WNW,286,0.0,-999.0,95,-99.99,,,0.00,0,weatherlink.com 1.10,2013-07-28 09:29:00,
2013-07-28 05:44:00,74.8,73.0,29.96,WNW,286,0.0,-999.0,95,-99.99,,,0.00,0,weatherlink.com 1.10,2013-07-28 09:44:00,
2013-07-28 05:59:00,74.6,73.0,29.97,WNW,286,0.0,-999.0,95,-99.99,,,0.00,0,weatherlink.com 1.10,2013-07-28 09:59:00,
2013-07-28 06:14:00,74.6,73.0,29.97,WNW,286,0.0,-999.0,95,-99.99,,,0.00,0,weatherlink.com 1.10,2013-07-28 10:14:00,
2013-07-28 06:29:00,74.5,73.0,29.98,WNW,286,0.0,-999.0,95,-99.99,,,0.00,0,weatherlink.com 1.10,2013-07-28 10:29:00,
2013-07-28 06:44:00,74.4,73.0,29.98,WNW,286,0.0,-999.0,95,-99.99,,,0.00,0,weatherlink.com 1.10,2013-07-28 10:44:00,
2013-07-28 06:59:00,74.6,73.0,29.99,WNW,286,0.0,-999.0,95,-99.99,,,0.00,5,weatherlink.com 1.10,2013-07-28 10:59:00,
2013-07-28 07:14:00,74.9,73.0,29.99,WNW,286,0.0,-999.0,95,-99.99,,,0.00,16,weatherlink.com 1.10,2013-07-28 11:14:00,
2013-07-28 07:29:00,75.0,74.0,29.99,WNW,286,0.0,-999.0,96,-99.99,,,0.00,39,weatherlink.com 1.10,2013-07-28 11:29:00,
2013-07-28 07:44:00,75.8,75.0,30.00,WNW,286,0.0,-999.0,96,-99.99,,,0.00,46,weatherlink.com 1.10,2013-07-28 11:44:00,
2013-07-28 07:59:00,76.7,76.0,30.00,WNW,286,0.0,-999.0,96,-99.99,,,0.00,162,weatherlink.com 1.10,2013-07-28 11:59:00,
2013-07-28 08:14:00,78.0,77.0,30.00,WNW,286,0.0,-999.0,96,-99.99,,,0.00,95,weatherlink.com 1.10,2013-07-28 12:14:00,
2013-07-28 08:29:00,78.3,77.0,30.00,WNW,286,0.0,-999.0,96,-99.99,,,0.00,135,weatherlink.com 1.10,2013-07-28 12:29:00,
2013-07-28 08:44:00,79.4,78.0,30.01,WNW,286,0.0,-999.0,96,-99.99,,,0.00,315,weatherlink.com 1.10,2013-07-28 12:44:00,
2013-07-28 08:59:00,79.6,78.0,30.01,WNW,286,0.0,-999.0,96,-99.99,,,0.00,302,weatherlink.com 1.10,2013-07-28 12:59:00,
2013-07-28 09:14:00,81.1,80.0,30.01,WNW,286,0.0,-999.0,95,-99.99,,,0.00,415,weatherlink.com 1.10,2013-07-28 13:14:00,
2013-07-28 09:29:00,82.7,80.0,30.01,WNW,286,0.0,-999.0,91,-99.99,,,0.00,468,weatherlink.com 1.10,2013-07-28 13:29:00,
2013-07-28 09:44:00,83.4,79.0,30.02,WNW,286,0.0,-999.0,85,-99.99,,,0.00,520,weatherlink.com 1.10,2013-07-28 13:44:00,
2013-07-28 09:59:00,84.0,78.0,30.02,WNW,286,0.0,-999.0,81,-99.99,,,0.00,255,weatherlink.com 1.10,2013-07-28 13:59:00,
2013-07-28 10:14:00,83.9,77.0,30.02,WNW,286,0.0,-999.0,80,-99.99,,,0.00,673,weatherlink.com 1.10,2013-07-28 14:14:00,
2013-07-28 10:30:00,84.9,78.0,30.03,WNW,286,0.0,-999.0,79,-99.99,,,0.00,738,weatherlink.com 1.10,2013-07-28 14:30:00,
2013-07-28 10:45:00,86.4,78.0,30.03,WNW,286,0.0,-999.0,75,-99.99,,,0.00,788,weatherlink.com 1.10,2013-07-28 14:45:00,
2013-07-28 11:00:00,87.2,77.0,30.03,ESE,103,0.0,-999.0,72,-99.99,,,0.00,427,weatherlink.com 1.10,2013-07-28 15:00:00,
2013-07-28 11:15:00,87.0,75.0,30.03,SE,127,1.0,-999.0,68,-99.99,,,0.00,856,weatherlink.com 1.10,2013-07-28 15:15:00,
2013-07-28 11:30:00,87.8,76.0,30.03,East,90,2.0,-999.0,67,-99.99,,,0.00,844,weatherlink.com 1.10,2013-07-28 15:30:00,
2013-07-28 11:45:00,88.0,77.0,30.03,East,84,0.0,-999.0,69,-99.99,,,0.00,858,weatherlink.com 1.10,2013-07-28 15:45:00,
2013-07-28 12:00:00,89.3,77.0,30.03,SE,128,1.0,-999.0,66,-99.99,,,0.00,977,weatherlink.com 1.10,2013-07-28 16:00:00,
2013-07-28 12:15:00,88.9,76.0,30.03,SE,133,5.0,-999.0,65,-99.99,,,0.00,911,weatherlink.com 1.10,2013-07-28 16:15:00,
2013-07-28 12:30:00,89.6,77.0,30.03,ESE,103,0.0,-999.0,66,-99.99,,,0.00,918,weatherlink.com 1.10,2013-07-28 16:30:00,
2013-07-28 12:45:00,88.7,76.0,30.03,ESE,120,0.0,-999.0,66,-99.99,,,0.00,967,weatherlink.com 1.10,2013-07-28 16:45:00,
2013-07-28 13:00:00,90.0,77.0,30.02,ESE,114,1.0,-999.0,66,-99.99,,,0.00,962,weatherlink.com 1.10,2013-07-28 17:00:00,
2013-07-28 13:15:00,91.0,78.0,30.02,ESE,114,0.0,-999.0,66,-99.99,,,0.00,1021,weatherlink.com 1.10,2013-07-28 17:15:00,
2013-07-28 13:30:00,91.2,79.0,30.02,ESE,123,2.0,-999.0,67,-99.99,,,0.00,942,weatherlink.com 1.10,2013-07-28 17:30:00,
2013-07-28 13:45:00,90.8,77.0,30.02,SE,126,4.0,-999.0,65,-99.99,,,0.00,860,weatherlink.com 1.10,2013-07-28 17:45:00,
2013-07-28 14:00:00,90.1,77.0,30.02,ESE,109,4.0,-999.0,66,-99.99,,,0.00,810,weatherlink.com 1.10,2013-07-28 18:00:00,
2013-07-28 14:15:00,90.2,79.0,30.02,ESE,112,0.0,-999.0,69,-99.99,,,0.00,793,weatherlink.com 1.10,2013-07-28 18:15:00,
2013-07-28 14:30:00,89.4,76.0,30.02,East,86,5.0,-999.0,65,-99.99,,,0.00,701,weatherlink.com 1.10,2013-07-28 18:30:00,
2013-07-28 14:45:00,88.8,77.0,30.02,SE,145,0.0,-999.0,68,-99.99,,,0.00,654,weatherlink.com 1.10,2013-07-28 18:45:00,
2013-07-28 15:00:00,88.9,76.0,30.02,NE,53,0.0,-999.0,66,-99.99,,,0.00,193,weatherlink.com 1.10,2013-07-28 19:00:00,
2013-07-28 15:15:00,83.9,73.0,30.02,WSW,248,3.0,-999.0,70,-99.99,,,0.00,155,weatherlink.com 1.10,2013-07-28 19:15:00,
2013-07-28 15:30:00,81.9,73.0,30.02,WSW,254,0.0,-999.0,74,-99.99,,,0.00,146,weatherlink.com 1.10,2013-07-28 19:30:00,
2013-07-28 15:45:00,82.7,74.0,30.02,WSW,254,1.0,-999.0,75,-99.99,,,0.00,146,weatherlink.com 1.10,2013-07-28 19:45:00,
2013-07-28 16:00:00,82.2,72.0,30.01,WSW,254,0.0,-999.0,72,-99.99,,,0.00,153,weatherlink.com 1.10,2013-07-28 20:00:00,
2013-07-28 16:15:00,82.9,74.0,30.00,WSW,254,0.0,-999.0,74,-99.99,,,0.00,142,weatherlink.com 1.10,2013-07-28 20:15:00,
2013-07-28 16:30:00,84.3,77.0,30.00,ESE,121,0.0,-999.0,78,-99.99,,,0.00,128,weatherlink.com 1.10,2013-07-28 20:30:00,
2013-07-28 16:45:00,84.7,77.0,30.00,East,98,1.0,-999.0,77,-99.99,,,0.00,132,weatherlink.com 1.10,2013-07-28 20:45:00,
2013-07-28 17:00:00,84.8,76.0,30.00,ESE,115,0.0,-999.0,74,-99.99,,,0.00,141,weatherlink.com 1.10,2013-07-28 21:00:00,
2013-07-28 17:15:00,84.7,76.0,30.00,East,96,0.0,-999.0,76,-99.99,,,0.00,141,weatherlink.com 1.10,2013-07-28 21:15:00,
2013-07-28 17:30:00,84.9,77.0,30.00,ESE,121,0.0,-999.0,76,-99.99,,,0.00,141,weatherlink.com 1.10,2013-07-28 21:30:00,
2013-07-28 17:45:00,85.2,77.0,30.00,ESE,108,0.0,-999.0,76,-99.99,,,0.00,149,weatherlink.com 1.10,2013-07-28 21:45:00,
2013-07-28 18:00:00,85.0,77.0,30.00,ESE,104,0.0,-999.0,77,-99.99,,,0.00,144,weatherlink.com 1.10,2013-07-28 22:00:00,
2013-07-28 18:15:00,85.2,78.0,30.00,ESE,117,0.0,-999.0,78,-99.99,,,0.00,144,weatherlink.com 1.10,2013-07-28 22:15:00,
2013-07-28 18:30:00,85.0,77.0,30.00,SE,136,0.0,-999.0,78,-99.99,,,0.00,116,weatherlink.com 1.10,2013-07-28 22:30:00,
2013-07-28 18:45:00,84.8,77.0,30.01,East,91,0.0,-999.0,77,-99.99,,,0.00,95,weatherlink.com 1.10,2013-07-28 22:45:00,
2013-07-28 19:00:00,84.7,77.0,30.01,East,96,0.0,-999.0,77,-99.99,,,0.00,84,weatherlink.com 1.10,2013-07-28 23:00:00,
2013-07-28 19:15:00,84.5,77.0,30.01,ESE,110,0.0,-999.0,77,-99.99,,,0.00,70,weatherlink.com 1.10,2013-07-28 23:15:00,
2013-07-28 19:30:00,84.3,76.0,30.01,SE,128,0.0,-999.0,77,-99.99,,,0.00,40,weatherlink.com 1.10,2013-07-28 23:30:00,
2013-07-28 19:45:00,84.2,77.0,30.02,East,88,0.0,-999.0,78,-99.99,,,0.00,18,weatherlink.com 1.10,2013-07-28 23:45:00,
2013-07-28 20:00:00,83.9,76.0,30.03,East,92,0.0,-999.0,78,-99.99,,,0.00,5,weatherlink.com 1.10,2013-07-29 00:00:00,
2013-07-28 20:15:00,83.6,77.0,30.04,East,92,0.0,-999.0,79,-99.99,,,0.00,0,weatherlink.com 1.10,2013-07-29 00:15:00,
2013-07-28 20:30:00,83.2,76.0,30.04,East,92,0.0,-999.0,80,-99.99,,,0.00,0,weatherlink.com 1.10,2013-07-29 00:30:00,
2013-07-28 20:45:00,82.8,76.0,30.05,East,92,0.0,-999.0,81,-99.99,,,0.00,0,weatherlink.com 1.10,2013-07-29 00:45:00,
2013-07-28 21:00:00,82.5,76.0,30.05,East,92,0.0,-999.0,80,-99.99,,,0.00,0,weatherlink.com 1.10,2013-07-29 01:00:00,
2013-07-28 21:15:00,82.3,76.0,30.05,East,92,0.0,-999.0,81,-99.99,,,0.00,0,weatherlink.com 1.10,2013-07-29 01:15:00,
2013-07-28 21:30:00,82.0,76.0,30.06,East,92,0.0,-999.0,82,-99.99,,,0.00,0,weatherlink.com 1.10,2013-07-29 01:30:00,
2013-07-28 21:45:00,81.7,76.0,30.06,East,92,0.0,-999.0,83,-99.99,,,0.00,0,weatherlink.com 1.10,2013-07-29 01:45:00,
2013-07-28 22:15:00,81.1,76.0,30.07,East,92,0.0,-999.0,85,-99.99,,,0.00,0,weatherlink.com 1.10,2013-07-29 02:15:00,
2013-07-28 22:30:00,80.8,76.0,30.07,East,92,0.0,-999.0,86,-99.99,,,0.00,0,weatherlink.com 1.10,2013-07-29 02:30:00,
2013-07-28 22:45:00,80.5,76.0,30.07,East,92,0.0,-999.0,86,-99.99,,,0.00,0,weatherlink.com 1.10,2013-07-29 02:45:00,
2013-07-28 23:00:00,80.2,76.0,30.07,East,92,0.0,-999.0,86,-99.99,,,0.00,0,weatherlink.com 1.10,2013-07-29 03:00:00,
2013-07-28 23:16:00,79.9,76.0,30.07,East,92,0.0,-999.0,87,-99.99,,,0.00,0,weatherlink.com 1.10,2013-07-29 03:16:00,
2013-07-28 23:46:00,79.8,76.0,30.07,East,92,0.0,-999.0,88,-99.99,,,0.00,0,weatherlink.com 1.10,2013-07-29 03:46:00,